STARLINK-1232 (45213 NORAD) Tracking and Keplerian Element Data

This shows tracking and keplerian element data for the satellite.

Feedback or suggestion? Click here.




ElementValue
Catalog45213
NameSTARLINK-1232
Epoch Orbit751
Epoch Day94.25001157
Epoch Year2020
RAAN42.8478
Inclination52.9974
Eccentricity0.0001546
Argument of Perigee53.7112
Mean Anonmoly80.7157
Mean Motion15.62712552
Decay Rate0.00036008
L11 45213U 20012AM 20094.25001157 .00036008 00000-0 39795-3 0 9999
L22 45213 52.9974 42.8478 0001546 53.7112 80.7157 15.62712552 7518

Live tracking and technical data element details for STARLINK-1232 (NORAD 45213). STARLINK-1232 can be tracked NOW for your location showing map with azimuth and elevation plus other details from your city location.

Track the satellite on the map from your city or location and see movement details for azimuth, elevation, latitude, longitude, range, height, and movement on the map or in text.







IsCatalogInMostPopularTable: catalog: 45213, numindb: 5
Update: records affected: 1



GetName: 45213 STARLINK-1232

Hit Count: updated at: Tue, 07 Apr 2020 16:05:37 GMT